Other Public Products
Issued by NWS Charleston, SC

Current Version | Previous Version | Graphics & Text | Print | Product List | Glossary On
Versions: 1 2 3 4 5 6 7 8 9 10 11 12 13 14 15 16 17 18 19 20 21 22 23 24 25 26 27 28 29 30 31 32 33 34 35 36 37 38 39 40 41 42 43 44 45 46 47 48 49 50
000 FPUS82 KCHS 211240 OPUCHS TEST...KCHS/KSAV Gateway Observations...TEST National Weather Service Charleston SC 800 AM EDT THU SEP 21 2017 NOTE: "fair" indicates few or no clouds below 12,000 feet with no significant weather and/or obstructions to visibility. SCZ050-WAZ558-NCZ071-TXZ119-213-PAZ071-DCZ001-FLZ074-172-MI076- NYZ176-178-MAZ016-IL014-TNZ027-NJZ106-GAZ044-MD014-211300- ...Gateway Observations for Charleston International... CITY SKY/WX TMP DP RH WIND PRES REMARKS Chas Airport MOSUNNY 73 73 100 CALM 30.04R FOG 6HR MIN TEMP: 72; 6HR MAX TEMP: 74; Seattle LGT RAIN 51 48 89 S8 29.87R 6HR MIN TEMP: 50; 6HR MAX TEMP: 53; 6HR PCP: TRACE; Charlotte PTCLDY 69 66 90 N5 30.08R 6HR MIN TEMP: 66; 6HR MAX TEMP: 72; Dallas DFW MOCLDY 80 73 79 S14 29.91R 6HR MIN TEMP: 80; 6HR MAX TEMP: 85; Dallas Love MOCLDY 80 72 76 S12 29.93R 6HR MIN TEMP: 80; 6HR MAX TEMP: 84; Philladelphia PTSUNNY 73 62 68 N8 30.03S 6HR MIN TEMP: 70; 6HR MAX TEMP: 73; Wash National MOSUNNY 71 63 75 N6 30.07R 6HR MIN TEMP: 67; 6HR MAX TEMP: 73; Baltimore MOSUNNY 65 63 93 W3 30.06R 6HR MIN TEMP: 61; 6HR MAX TEMP: 67; Miami MOSUNNY 83 78 85 CALM 29.94S HX 93 6HR MIN TEMP: 80; 6HR MAX TEMP: 84; Detroit MOCLDY 68 67 96 S3 30.07R FOG 6HR MIN TEMP: 67; 6HR MAX TEMP: 69; Newark CLOUDY 73 63 70 N14 30.00R 6HR MIN TEMP: 72; 6HR MAX TEMP: 74; Laguardia CLOUDY 72 65 78 N13 29.98R 6HR MIN TEMP: 72; 6HR MAX TEMP: 74; J F K CLOUDY 73 64 73 N14 29.99R 6HR MIN TEMP: 73; 6HR MAX TEMP: 75; Boston Logan CLOUDY 68 62 81 NE24G35 29.97R 6HR MIN TEMP: 68; 6HR MAX TEMP: 72; Ft. Lauderdale MOSUNNY 80 77 90 NW5 29.94R Chicago O`Hare CLOUDY 73 67 81 SE3 29.97R 6HR MIN TEMP: 72; 6HR MAX TEMP: 81; Chicago Midway CLOUDY 75 69 81 S5 29.97R 6HR MIN TEMP: 74; 6HR MAX TEMP: 79; Houston Bush PTCLDY 77 75 93 CALM 29.95R 6HR MIN TEMP: 76; 6HR MAX TEMP: 80; Houston Hobby PTCLDY 80 76 87 CALM 29.93S 6HR MIN TEMP: 80; 6HR MAX TEMP: 81; Nashville PTCLDY 69 67 93 CALM 30.09R 6HR MIN TEMP: 69; 6HR MAX TEMP: 72; Atlanta PTCLDY 70 67 90 NW5 30.09R 6HR MIN TEMP: 69; 6HR MAX TEMP: 74; $$ GAZ044-118-TXZ119-213-NCZ071-DCZ001-MDZ014-506-PAZ021-071-NJZ106- NYZ176-178-MAZ106-OHZ011-021-055-MIZ076-KYZ091-ILZ014-INZ047- MNZ060-ONZ431-211300- ...Gateway Observations for Savannah International... CITY SKY/WX TMP DP RH WIND PRES REMARKS Savannah Arpt PTCLDY 73 72 96 CALM 30.05R 6HR MIN TEMP: 70; 6HR MAX TEMP: 74; Atlanta PTCLDY 70 67 90 NW5 30.09R 6HR MIN TEMP: 69; 6HR MAX TEMP: 74; Charlotte PTCLDY 69 66 90 N5 30.08R 6HR MIN TEMP: 66; 6HR MAX TEMP: 72; Dallas DFW MOCLDY 80 73 79 S14 29.91R 6HR MIN TEMP: 80; 6HR MAX TEMP: 85; Houston Bush PTCLDY 77 75 93 CALM 29.95R 6HR MIN TEMP: 76; 6HR MAX TEMP: 80; Wash National MOSUNNY 71 63 75 N6 30.07R 6HR MIN TEMP: 67; 6HR MAX TEMP: 73; Wash Dulles MOSUNNY 65 62 90 NW3 30.08R 6HR MIN TEMP: 60; 6HR MAX TEMP: 65; Baltimore MOSUNNY 65 63 93 W3 30.06R 6HR MIN TEMP: 61; 6HR MAX TEMP: 67; Philadelphia PTSUNNY 73 62 68 N8 30.03S 6HR MIN TEMP: 70; 6HR MAX TEMP: 73; Newark CLOUDY 73 63 70 N14 30.00R 6HR MIN TEMP: 72; 6HR MAX TEMP: 74; Laguardia CLOUDY 72 65 78 N13 29.98R 6HR MIN TEMP: 72; 6HR MAX TEMP: 74; J F K CLOUDY 73 64 73 N14 29.99R 6HR MIN TEMP: 73; 6HR MAX TEMP: 75; Boston CLOUDY 68 62 81 NE24G35 29.97R 6HR MIN TEMP: 68; 6HR MAX TEMP: 72; Pittsburg PTCLDY 63 62 97 CALM 30.11S FOG 6HR MIN TEMP: 62; 6HR MAX TEMP: 66; Akron PTCLDY 65 61 87 CALM 30.11S 6HR MIN TEMP: 64; 6HR MAX TEMP: 69; Cleveland PTCLDY 67 63 87 S5 30.11S FOG 6HR MIN TEMP: 64; 6HR MAX TEMP: 70; Cincinnati PTCLDY 67 67 100 SE3 30.11R FOG 6HR MIN TEMP: 65; 6HR MAX TEMP: 70; Columbus CLOUDY 63 63 100 CALM 30.11R Detroit MOCLDY 68 67 96 S3 30.07R FOG 6HR MIN TEMP: 67; 6HR MAX TEMP: 69; Chicago O`Hare CLOUDY 73 67 81 SE3 29.97R 6HR MIN TEMP: 72; 6HR MAX TEMP: 81; Minneapolis CLEAR 56 50 80 SE7 30.00R 6HR MIN TEMP: 53; 6HR MAX TEMP: 58; Indianapolis CLOUDY 70 69 97 SE6 30.07R 6HR MIN TEMP: 70; 6HR MAX TEMP: 74; Toronto Canada PTCLDY 64 61 88 E3 30.10F $$

USA.gov is the U.S. government's official web portal to all federal, state and local government web resources and services.